www.pogodaiklimat.ru

Погода и климат >> Архив погоды >> Мьянма >> Ye


ПОГОДА в Ye

  • Прогноз погоды в Ye
  • Монитор погоды в Ye
  • Климат города

АРХИВ ПОГОДЫ в Ye

Время (UTC), дата Ветер
(напр.,м/с)
 
Видим.   Явления Облачность Т
(С)
Тd
(С)
f
(%)
Тe
(С)
Тes
(С)
Комфортность P
(гПа)
Po
(гПа)
Тmin
(С)
Tmax
(С)
R
(мм)
R24
(мм)
S
(см)
09 10.12 СЗ 4 5000 м 8/5 200 м
[Cb cap Ac und]
+31.0 +22.6 61 +41 +41 опасность
перегрева
1009.1 1009.0
12 10.12 СВ 1 3000 м 8/5 200 м
[Cb cap Ac As]
+28.8 +23.0 71 +39 +39 очень
душно
1010.5 1011.0 +32.8
00 11.12 В 1 3000 м 5/5 200 м
[Cb cap]
+24.0 +22.6 92 +31 +31 очень
душно
1010.6 1011.0 +23.2
03 11.12 СВ 2 4000 м 8/5 200 м
[Cb cap Ac As]
+27.2 +22.6 76 +36 +38 очень
душно
1011.7 1012.0
06 11.12 СВ 4 5000 м 4/3 200 м
[Cb cap Ac und]
+31.0 +25.4 72 +45 +51 опасность
перегрева
1010.6 1011.0
09 11.12 ЮЗ 2 5000 м 9/6 200 м
[Cb cap Ac As]
+32.8 +24.4 61 +45 +46 опасность
перегрева
1008.7 1009.0
12 11.12 штиль 0 3000 м 8/5 200 м
[Cb cap Ac As]
+28.6 +23.0 72 +38 +38 очень
душно
1010.4 1010.0 +24.8 +34.0
00 12.12 ЮЗ 2 3000 м 8/5 200 м
[Cb cap Ac As]
+25.0 +21.9 83 +32 +32 очень
душно
1011.5 1012.0 +24.2
03 12.12 СВ 2 5000 м 5/5 200 м
[Cb cap]
+28.8 +23.3 72 +39 +43 очень
душно
1012.3 1012.0
06 12.12 СВ 1 5000 м 5/5 200 м
[Cb cap]
+32.2 +26.5 72 +49 +57 опасность
перегрева
1011.2 1011.0
09 12.12 СВ 1 5000 м 9/5 200 м
[Cb cap Ac As]
+31.8 +23.6 62 +43 +44 опасность
перегрева
1010.4 1010.0
12 12.12 штиль 0 3000 м 5/5 200 м
[Cb cap]
+28.8 +23.0 71 +39 +39 очень
душно
1010.8 1011.0 +34.0
00 13.12 СВ 2 3000 м 3/3 200 м
[Cb cap]
+23.8 +20.9 84 +30 +30 очень
душно
1012.2 1012.0 +23.0
03 13.12 СЗ 2 5000 м ясно +27.2 +21.1 69 +34 +42 очень
душно
1013.4 1013.0
06 13.12 СВ 1 5000 м 3/3 200 м
[Cb cap]
+31.0 +20.3 53 +38 +49 очень
душно
1012.0 1012.0
09 13.12 СВ 3 5000 м 4/4 200 м
[Cb cap]
+33.0 +21.2 50 +41 +43 опасность
перегрева
1010.4 1010.0
12 13.12 штиль 0 3000 м 3/3 200 м
[Cb cap]
+29.2 +23.0 69 +39 +39 очень
душно
1011.3 1011.0 +34.8
00 14.12 СВ 4 3000 м 3/0
[Cs]
+23.8 +19.1 75 +29 +29 душно 1012.2 1012.0 +23.0
03 14.12 СВ 4 5000 м 4/0
[Cs]
+27.0 +19.1 62 +32 +37 очень
душно
1013.2 1013.0
06 14.12 СВ 5 5000 м 4/0
[Cs]
+30.8 +20.3 54 +38 +44 очень
душно
1012.3 1012.0
09 14.12 СВ 1 5000 м 3/0
[Cs]
+31.0 +20.3 53 +38 +42 очень
душно
1011.3 1011.0
12 14.12 В 1 3000 м 6/4 200 м
[Cb cap Ac und]
+28.4 +20.3 62 +35 +35 очень
душно
1011.8 1012.0 +32.8
00 15.12 В 2 3000 м туман местами 8/5 200 м
[Cb cap Ac As]
+23.6 +19.1 76 +28 +28 душно 1012.3 1012.0 +22.8
03 15.12 СВ 2 5000 м {туман} 4/0
[Cs]
+27.2 +19.1 61 +32 +40 очень
душно
1015.0 1015.0
06 15.12 СЗ 3 5000 м ясно +31.2 +18.9 48 +36 +47 очень
душно
1012.0 1012.0
09 15.12 СВ 2 5000 м 5/5 200 м
[Cb cap]
+33.0 +21.2 50 +41 +43 опасность
перегрева
1010.7 1011.0
12 15.12 СВ 1 3000 м 6/4 200 м
[Cb cap Ac trans]
+29.2 +23.0 69 +39 +39 очень
душно
1011.8 1012.0 +34.7
00 16.12 В 1 3000 м туман местами 5/5 200 м
[Cb cap]
+24.0 +20.9 83 +30 +30 очень
душно
1012.8 1013.0 +23.2
03 16.12 СВ 1 5000 м {туман} 3/3 200 м
[Cb cap]
+27.0 +21.1 70 +34 +41 очень
душно
1013.8 1014.0
06 16.12 СВ 3 5000 м 3/3 200 м
[Cb cap]
+31.1 +20.3 53 +38 +46 очень
душно
1011.2 1011.0
09 16.12 В 3 5000 м 3/3 200 м
[Cb cap]
+33.4 +21.2 49 +41 +43 опасность
перегрева
1010.6 1011.0
12 16.12 СЗ 1 3000 м 3/0
[Cs]
+30.0 +22.3 63 +39 +39 очень
душно
1011.6 1012.0 +35.2
00 17.12 В 1 3000 м 5/5 200 м
[Cb cap]
+24.2 +20.9 82 +30 +30 очень
душно
1012.5 1013.0 +23.4
03 17.12 СВ 1 5000 м ясно +29.0 +19.6 57 +35 +44 очень
душно
1012.8 1013.0
06 17.12 СЗ 3 5000 м ясно +31.8 +21.5 54 +40 +51 опасность
солнечного
удара
1011.8 1012.0

 

Местоположение метеостанции Ye (Мьянма): широта 15.25 долгота 97.87 высота над уровнем моря 7 м.

В архиве по умолчанию представлена погода в Ye за последнюю неделю. Архивные данные за месяц целиком и за предыдущие месяцы, начиная с января 2011 года, Вы можете получить, выбрав интересующий диапазон дат из раскрывающегося списка и нажав кнопку "Ввод!".


*Определитесь, кто Вы:
робот инопланетянин человек

Внимание! Время в таблицах - всемирное. Для получения местного времени необходимо прибавить поправку, которая в Ye равна 6.5 ч.

Смотрите также архив погоды в соседних городах и на ближайших метеорологических станциях:

Погода в Thong Pha Phum (Таиланд) (99 км)
Погода в Dawei (Мьянма) (133 км)
Погода в Umphang (Таиланд) (137 км)
Погода в Moulmein (Мьянма) (142 км)
Погода в Hpa-An (Мьянма) (168 км)
Погода в Mae Sot (Таиланд) (174 км)
Погода в Doi Mu Soe Agromet (Таиланд) (202 км)
Погода в Kam Paeng Phet (Таиланд) (224 км)
Погода в Kanchanaburi (Таиланд) (225 км)
Погода в Tak (Таиланд) (227 км)

Пояснения к столбцам:

Ветер - указаны скорость ветра в м/с - средняя за 10 мин, порывы в срок и между сроками (в фигурных скобках) и направление, откуда дует ветер: С - северный, СВ - северо-восточный, В - восточный, ЮВ - юго-восточный, Ю - южный, ЮЗ - юго-западный, З - западный, СЗ - северо-западный.
Видимость - горизонтальная дальность видимости в метрах или километрах. При видимости от 1 до 10 км при отсутствии осадков обычно наблюдается дымка, при ухудшении видимости до 1 км и менее - туман. В сухую погоду видимость может ухудшаться дымом, пылью или мглою.
Явления - указаны атмосферные явления, наблюдавшиеся в срок или в последний час перед сроком; фигурными скобками обозначены явления, наблюдавшиеся между сроками (за 1-3 часа до срока); квадратными скобками обозначены град или гололедные отложения с указанием их диаметра в мм.
Облачность - указаны через наклонную черту общая и нижняя облачность в баллах и высота нижней границы облаков в метрах; квадратными скобками обозначены формы облаков: Ci - перистые, Cs - перисто-слоистые, Cc - перисто-кучевые, Ac - высококучевые, As - высокослоистые, Sc - слоисто-кучевые, Ns - слоисто-дождевые, Cu - кучевые, Cb - кучево-дождевые. Подробнее классификацию облаков см. в Атласе облаков (PDF).
T - Температура воздуха - температура, измеренная на высоте 2 м над землей.
Td - Температура точки росы - температура, при понижении до которой содержащийся в воздухе водяной пар достигнет насыщения.
f - Относительная влажность воздуха - влажноcть воздуха, измеренная на высоте 2 м над землей.
Te - Эффективная температура - температура, которую ощущает одетый по сезону человек в тени. Характеристика душности погоды. При расчете учитывается влияние влажности воздуха и скорости ветра на теплоощущения человека.
Tes - Эффективная температура на солнце - температура, которую ощущает человек, с поправкой на солнечный нагрев. Характеристика знойности погоды. Зависит от высоты солнца над горизонтом, облачности и скорости ветра. Ночью, в пасмурную погоду, а также при ветре 12 м/с и более поправка равна нулю.
P - Атмосферное давление - приведенное к уровню моря атмосферное давление.
Po - Атмосферное давление - измеренное на уровне метеостанции атмосферное давление.
Tmin - Минимальная температура - минимум температуры воздуха на высоте 2 м над землей.
Tmax - Максимальная температура - максимум температуры воздуха на высоте 2 м над землей.
R - Количество осадков - Количество выпавших осадков за период времени, мм. При наведении курсора мыши на число - период времени, за который выпало указанное количество осадков.
R24 - Количество осадков - Количество выпавших осадков за 24 часа, мм.
S - Снежный покров - Высота снежного покрова, см. При наведении курсора мыши на число - состояние снежного покрова и степень покрытия местности в баллах.